Location: Boiro
(42.6475°N, 8.8834°W)
Time: 01:23:08
(UTC+01:00)

Vanguard 2 - All Passes

Search period start: 30 November 2021 00:00
Search period end: 10 December 2021 00:00
Orbit: 554 x 2936 km, 32.9° (Epoch: 29 November)

Date Brightness Start Highest point End Pass type
(mag) Time Alt. Az. Time Alt. Az. Time Alt. Az.
30 Nov - 15:57:55 10° SW 16:02:55 31° SSE 16:10:25 10° E daylight
30 Nov - 18:04:22 10° WSW 18:11:16 45° S 18:22:32 10° ESE daylight
30 Nov - 20:12:12 10° W 20:20:51 37° SSW 20:33:48 10° SE visible
30 Nov - 22:22:44 10° WSW 22:31:01 20° SSW 22:41:13 10° S visible
01 Dec - 14:11:09 10° SSE 14:13:08 12° SE 14:15:24 10° ESE daylight
01 Dec - 16:15:09 10° SW 16:20:19 35° SSE 16:28:17 10° ESE daylight
01 Dec - 18:21:56 10° WSW 18:28:54 43° S 18:40:06 10° ESE visible
01 Dec - 20:30:08 10° WSW 20:38:30 31° SSW 20:50:35 10° SSE visible
01 Dec - 22:42:33 10° WSW 22:48:35 14° SW 22:55:32 10° S visible
02 Dec - 14:27:13 10° S 14:30:20 17° SSE 14:34:12 10° ESE daylight
02 Dec - 16:32:30 10° WSW 16:37:49 38° S 16:46:05 10° ESE daylight
02 Dec - 18:39:35 10° WSW 18:46:31 39° S 18:57:31 10° SE visible
02 Dec - 20:48:18 10° WSW 20:56:10 25° SSW 21:06:58 10° SSE visible
03 Dec - 14:44:00 10° SSW 14:47:38 22° SSE 14:52:24 10° ESE daylight
03 Dec - 16:49:57 10° WSW 16:55:20 39° S 17:03:46 10° ESE daylight
03 Dec - 18:57:19 10° WSW 19:04:10 34° SSW 19:14:43 10° SE visible
03 Dec - 21:06:55 10° WSW 21:13:49 19° SSW 21:22:44 10° SSE visible
04 Dec - 15:01:04 10° SW 15:04:59 26° SSE 15:10:21 10° ESE daylight
04 Dec - 17:07:29 10° WSW 17:12:55 37° S 17:21:22 10° ESE daylight
04 Dec - 19:15:11 10° WSW 19:21:50 29° SSW 19:31:38 10° SE visible
04 Dec - 21:26:27 10° WSW 21:31:27 14° SSW 21:37:24 10° S visible
05 Dec - 13:14:46 10° SSE 13:15:14 10° SSE 13:15:42 10° SE daylight
05 Dec - 15:18:20 10° SW 15:22:26 29° SSE 15:28:09 10° ESE daylight
05 Dec - 17:25:06 10° WSW 17:30:31 34° S 17:38:50 10° SE daylight
05 Dec - 19:33:18 10° WSW 19:39:30 23° SSW 19:48:10 10° SSE visible
06 Dec - 13:30:15 10° S 13:32:32 14° SSE 13:35:06 10° ESE daylight
06 Dec - 15:35:43 10° SW 15:39:55 31° S 15:45:52 10° ESE daylight
06 Dec - 17:42:48 10° WSW 17:48:07 30° S 17:56:06 10° SE daylight
06 Dec - 19:51:50 10° WSW 19:57:10 18° SSW 20:04:06 10° SSE visible
07 Dec - 13:47:01 10° SSW 13:49:54 18° SSE 13:53:17 10° ESE daylight
07 Dec - 15:53:12 10° WSW 15:57:27 31° S 16:03:28 10° ESE daylight
07 Dec - 18:00:39 10° WSW 18:05:45 25° SSW 18:13:06 10° SE daylight
07 Dec - 20:11:25 10° SW 20:14:51 12° SSW 20:18:49 10° S visible
08 Dec - 14:04:07 10° SW 14:07:20 22° SSE 14:11:10 10° ESE daylight
08 Dec - 16:10:47 10° WSW 16:15:00 29° S 16:20:56 10° SE daylight
08 Dec - 18:18:44 10° WSW 18:23:24 20° SSW 18:29:43 10° SSE visible
09 Dec - 12:16:43 10° SSE 12:17:26 10° SSE 12:18:09 10° SSE daylight
09 Dec - 14:21:26 10° SW 14:24:47 24° S 14:28:54 10° ESE daylight
09 Dec - 16:28:29 10° WSW 16:32:35 25° S 16:38:14 10° SE daylight
09 Dec - 18:37:19 10° SW 18:41:03 15° SSW 18:45:42 10° S visible
